Regional Weather Roundup
Issued by NWS

Home | Current Version | Previous Version | Text Only | Print | Product List | Glossary Off
Versions: 1 2 3 4 5 6 7 8 9 10 11 12 13 14 15 16 17 18 19 20 21 22 23 24 25 26 27 28 29 30 31 32 33 34 35 36 37 38 39 40 41 42 43 44 45 46 47 48 49 50

000
ASUS45 KBOI 031410
RWRID

IDAHO REGIONAL WEATHER ROUNDUP
NATIONAL WEATHER SERVICE BOISE ID
800 AM MDT FRI JUL 03 2015

NOTE: "FAIR" INDICATES FEW OR NO CLOUDS BELOW 12000 FEET
WITH NO SIGNIFICANT WEATHER AND/OR OBSTRUCTIONS TO VISIBILITY

IDZ012-014-031500-
SOUTHWEST IDAHO


CITY           SKY/WX    TMP DP  RH WIND       PRES   REMARKS
BOISE          SUNNY     75  43  31 S5        29.93R
CALDWELL       SUNNY     73  43  33 W6        29.93S
MOUNTAIN HOME  SUNNY     78  36  21 W9        29.93R
$$

IDZ016-017-031500-
SOUTHCENTRAL IDAHO


CITY           SKY/WX    TMP DP  RH WIND       PRES   REMARKS
BURLEY         SUNNY     70  53  54 S6        30.02R
JEROME         SUNNY     71  46  40 SE5       30.02R
TWIN FALLS     SUNNY     83  40  21 SW13      30.00R
$$

IDZ019>023-031500-
SOUTHEAST IDAHO


CITY           SKY/WX    TMP DP  RH WIND       PRES   REMARKS
IDAHO FALLS    SUNNY     59  53  80 CALM      30.07R
POCATELLO      SUNNY     68  48  48 W3        30.05S
REXBURG        SUNNY     59  49  69 NE3       30.08R
$$

IDZ006-010-011-018-031-032-031500-
CENTRAL IDAHO MOUNTAINS


CITY           SKY/WX    TMP DP  RH WIND       PRES   REMARKS
MCCALL         SUNNY     60  45  57 CALM      30.09S
HAILEY         MOSUNNY   64  43  45 NW12      30.12F
STANLEY          N/A     50  38  63 CALM      30.24S
SALMON         SUNNY     59  46  63 CALM      30.06S
CHALLIS        SUNNY     66  40  38 CALM      30.11S
$$

IDZ002-004-006-007-026-031500-
NORTHERN IDAHO


CITY           SKY/WX    TMP DP  RH WIND       PRES   REMARKS
LEWISTON       SUNNY     73  50  44 E6        29.91R
LOWELL           N/A     59  51  75 CALM      30.00S
COEUR D`ALENE  SUNNY     70  52  52 NE6       29.94S
MULLAN PASS    SUNNY     69  39  33 N5        30.17S
$$


USA.gov is the U.S. government's official web portal to all federal, state and local government web resources and services.